Вернуться в каталог

STARLINK-2501

АктивенСвязьVLEO
NORAD 48330·PAYLOAD·🇺🇸 United States

Запущен Apr 29, 2021 с Cape Canaveral Space Force Station

Loading…

Ближайшие Пролёты (ближайшие 24 часа)

TLE

СвежийSource: CelesTrak SupGP

Эпоха: Sep 15, 2026, 01:20 UTC

1 48330C 21036BG  26258.05604167  .00045602  00000+0  14661-2 0  2586
2 48330  53.1584 300.2065 0001195  87.7416 294.3358 15.31686369    14

Отслеживайте STARLINK-2501 в реальном времени с AllMySat

Download on the App Store